Location: Congrier
(47.8099°N, 1.1170°W)
Time: 13:06:21
(UTC+00:00)

CZ-4 R/B - Pass Details

Date: 28 January 2023
Orbit: 526 x 587 km, 97.7° (Epoch: 24 March)

Event Time Altitude Azimuth Distance (km) Brightness Sun altitude
Rises 19:42:45 0° 187° (S) 2,813 5.0 -27.5°
Reaches altitude 10° 19:45:03 10° 196° (SSW) 1,915 4.2 -27.9°
Maximum altitude 19:48:53 35° 263° (W) 952 2.9 -28.6°
Drops below altitude 10° 19:52:43 10° 330° (NNW) 1,910 4.4 -29.2°
Sets 19:55:01 0° 340° (NNW) 2,806 5.2 -29.6°
